Regional Weather Roundup
Issued by NWS Bismarck, ND

Home | Current Version | Previous Version | Text Only | Print | Product List | Glossary On
Versions: 1 2 3 4 5 6 7 8 9 10 11 12 13 14 15 16 17 18 19 20 21 22 23 24 25 26 27 28 29 30 31 32 33 34 35 36 37 38 39 40 41 42 43 44 45 46 47 48 49 50
781
ASUS43 KBIS 260210
RWRBIS

NWR BROADCAST TEXT
NATIONAL WEATHER SERVICE BISMARCK ND
900 PM CDT WED MAY 25 2016

NOTE: "FAIR" INDICATES FEW OR NO CLOUDS BELOW 12,000 FEET WITH NO
SIGNIFICANT WEATHER AND/OR OBSTRUCTIONS TO VISIBILITY.


CITY           SKY/WX    TMP DP  RH WIND       PRES   REMARKS
WILLISTON      CLEAR     56  49  77 NW6       29.82R
MINOT          CLOUDY    60  55  83 S6        29.75R
MINOT AFB      CLOUDY    59  57  94 SE5       29.74R
BISMARCK       CLOUDY    62  59  90 W9        29.76S THUNDER
DICKINSON      CLEAR     54  42  64 NW9       29.81S
GARRISON         N/A     59  53  80 NE3       29.77S
HETTINGER ARPT CLEAR     56  43  61 NW8       29.84S
JAMESTOWN      CLOUDY    61  57  87 CALM      29.75R
BEACH          FAIR      55  43  62 NW7       29.87S
CARRINGTON     FAIR      61  57  88 CALM      29.77S
HAZEN          CLOUDY    57  50  77 W10       29.80R
LINTON           N/A     57  57 100 W12         N/A
MANDAN         MOCLDY    59  54  82 W16G25    29.78R
OAKES            N/A    N/A N/A N/A MISG        N/A
RUGBY          FAIR      57  55  94 E7        29.76S
STANLEY        FAIR      54  54 100 W9G16     29.78F
WATFORD CITY   FAIR      55  48  76 NW8       29.81F
$$

CITY           SKY/WX    TMP DP  RH WIND       PRES   REMARKS
GRAND FORKS    CLOUDY    60  58  92 NW13      29.66R
GRAND FORKS AF CLOUDY    58  58 100 NW12      29.68R
DEVILS LAKE    CLOUDY    59  55  87 E6        29.76R
FARGO          CLEAR     64  57  78 SW8       29.73R
CANDO          CLOUDY    57  57 100 E9        29.78R
CAVALIER       LGT RAIN  57  57 100 N10       29.70F VSB 1/2
GRAFTON        CLOUDY    59  59 100 N9        29.69S FOG
GWINNER        FAIR      64  61  88 NE6       29.74S
LANGDON        DRIZZLE   55  55 100 NE15      29.75F
ROLLA          CLOUDY    55  55 100 E7        29.78S
WALHALLA       LGT RAIN  55  55 100 N12       29.74F
$$

CITY           SKY/WX    TMP DP  RH WIND       PRES   REMARKS
ABERDEEN       CLOUDY    64  51  62 SW6       29.73R
MOBRIDGE       CLEAR     63  50  62 W12       29.76R
BUFFALO          N/A     62  45  53 NW7       29.80S
RAPID CITY     PTCLDY    57  50  77 CALM      29.89R
GLASGOW        PTCLDY    59  46  62 N15       29.82R
SIDNEY         CLEAR     61  46  59 N3        29.82S
WOLF POINT     CLEAR     62  47  57 CALM      29.82S
GLENDIVE       PTCLDY    59  46  63 E3        29.86R
MILES CITY     CLOUDY    57  48  72 S6        29.85R
BAKER          PTCLDY    59  44  57 CALM      29.85F
$$

CITY           SKY/WX    TMP DP  RH WIND       PRES   REMARKS
BILLINGS       MOCLDY    60  45  57 NW25      29.88R THUNDER
GREAT FALLS    MOCLDY    53  44  71 SW10      29.88R
REGINA         LGT RAIN  54  52  94 N8        29.85F
ESTEVAN        LGT RAIN  55  54  94 NE10      29.78S
$$





USA.gov is the U.S. government's official web portal to all federal, state and local government web resources and services.